Weather History for KBPI - September, 2012

Change the Weather History Date:

Monday, September 3, 2012

  Actual Average Record
Temperature  
Mean Temperature 56 °F 54 °F  
Max Temperature 79 °F 73 °F 85 °F (2013)
Min Temperature 34 °F 36 °F 26 °F (1993)
Degree Days  
Heating Degree Days 9 11  
Month to date heating degree days 31  
Since 1 July heating degree days 324  
Cooling Degree Days 0 0  
Month to date cooling degree days 0  
Year to date cooling degree days 35  
Growing Degree Days 6 (Base 50)    
Moisture  
Dew Point 29 °F    
Average Humidity 41    
Maximum Humidity 82    
Minimum Humidity 12    
Precipitation  
Precipitation 0.00 in 0.03 in 0.37 in (1987)
Month to date precipitation 0.08  
Year to date precipitation 4.74  
Sea Level Pressure  
Sea Level Pressure 30.06 in    
Wind  
Wind Speed 6 mph (NNW)    
Max Wind Speed 23 mph    
Max Gust Speed 32 mph    
Visibility 10 miles    
Events      
T = Trace of Precipitation, MM = Missing Value Source: NWS Daily Summary

Daily Weather History Graph

Daily Weather History Graph

Search for Another Location

Airport or City:

Trip Planner

Search our weather history database for the weather conditions in past years. The results will help you decide how hot, cold, wet, or windy it might be!

Date:

Astronomy

Sep. 03, 2012 Rise Set
Actual Time 6:48 AM MDT 7:50 PM MDT
Civil Twilight 6:19 AM MDT 8:19 PM MDT
Nautical Twilight 5:44 AM MDT 8:53 PM MDT
Astronomical Twilight 5:08 AM MDT 9:29 PM MDT
Moon 9:05 PM MDT (9/3) 10:05 AM MDT (9/3)
Length of Visible Light 13h 59m
Length of Day
13h 02m
Waning Gibbous, 90% of the Moon is Illuminated
Sep 3
Waning Gibbous
Sep 8
Last Quarter
Sep 15
New
Sep 22
First Quarter
Sep 29
Full

Hourly Weather History & Observations

Time (MDT) Temp. Windchill Dew Point Humidity Pressure Visibility Wind Dir Wind Speed Gust Speed Precip Events Conditions
12:53 AM 45.0 °F 43.5 °F 33.1 °F 63% 30.04 in 10.0 mi WNW 3.5 mph - N/A   Clear
1:53 AM 45.0 °F 43.5 °F 33.1 °F 63% 30.04 in 10.0 mi ESE 3.5 mph - N/A   Clear
2:53 AM 41.0 °F 38.0 °F 30.9 °F 67% 30.05 in 10.0 mi NNW 4.6 mph - N/A   Clear
3:53 AM 39.0 °F - 30.9 °F 73% 30.07 in 10.0 mi Calm Calm - N/A   Clear
4:53 AM 37.0 °F 33.3 °F 30.0 °F 76% 30.09 in 10.0 mi ENE 4.6 mph - N/A   Clear
5:53 AM 37.9 °F 35.5 °F 30.9 °F 76% 30.08 in 10.0 mi ESE 3.5 mph - N/A   Clear
6:53 AM 34.0 °F 28.0 °F 28.9 °F 82% 30.11 in 10.0 mi North 6.9 mph - N/A   Clear
7:53 AM 45.0 °F 43.5 °F 34.0 °F 65% 30.12 in 10.0 mi East 3.5 mph - N/A   Clear
8:53 AM 48.9 °F - 33.1 °F 54% 30.14 in 10.0 mi ESE 3.5 mph - N/A   Clear
9:53 AM 57.0 °F - 35.1 °F 44% 30.12 in 10.0 mi East 5.8 mph - N/A   Clear
10:53 AM 63.0 °F - 35.1 °F 35% 30.10 in 10.0 mi South 6.9 mph - N/A   Clear
11:53 AM 69.1 °F - 34.0 °F 27% 30.07 in 10.0 mi Variable 4.6 mph - N/A   Clear
12:53 PM 73.0 °F - 28.0 °F 19% 30.05 in 10.0 mi SW 5.8 mph - N/A   Clear
1:53 PM 78.1 °F - 26.1 °F 15% 30.01 in 10.0 mi WNW 15.0 mph 32.2 mph N/A   Partly Cloudy
2:53 PM 78.1 °F - 24.1 °F 14% 30.02 in 10.0 mi West 23.0 mph 32.2 mph N/A   Partly Cloudy
3:53 PM 77.0 °F - 21.0 °F 12% 30.01 in 10.0 mi WNW 10.4 mph 24.2 mph N/A   Partly Cloudy
4:53 PM 77.0 °F - 21.9 °F 13% 30.01 in 10.0 mi WNW 17.3 mph 21.9 mph N/A   Clear
5:53 PM 75.9 °F - 21.9 °F 13% 30.01 in 10.0 mi NW 17.3 mph 24.2 mph N/A   Partly Cloudy
6:53 PM 72.0 °F - 25.0 °F 17% 30.04 in 10.0 mi WNW 9.2 mph - N/A   Clear
7:53 PM 61.0 °F - 30.0 °F 31% 30.04 in 10.0 mi WSW 4.6 mph - N/A   Clear
8:53 PM 57.0 °F - 25.0 °F 29% 30.06 in 10.0 mi NNW 5.8 mph - N/A   Clear
9:53 PM 53.1 °F - 23.0 °F 31% 30.06 in 10.0 mi North 8.1 mph - N/A   Clear
10:53 PM 52.0 °F - 24.1 °F 34% 30.04 in 10.0 mi ENE 5.8 mph - N/A   Clear
11:53 PM 50.0 °F - 25.0 °F 38% 30.02 in 10.0 mi Calm Calm - N/A   Clear